Mobridge, SD

10:43 AM CDT on April 30, 2017 (GMT -0500)
Mobridge Municipal

Weather History for KMBG - March, 2013

Change the Weather History Date:

Saturday, March 16, 2013

  Actual Average Record
Temperature  
Mean Temperature 16 °F 32 °F  
Max Temperature 27 °F 42 °F 83 °F (2012)
Min Temperature 6 °F 21 °F -2 °F (1944)
Degree Days  
Heating Degree Days 48 33  
Month to date heating degree days 584  
Since 1 July heating degree days 6559  
Cooling Degree Days 0 0  
Month to date cooling degree days 0  
Year to date cooling degree days 0  
Moisture  
Dew Point 9 °F    
Average Humidity 74    
Maximum Humidity 86    
Minimum Humidity 51    
Precipitation  
Precipitation 0.05 in 0.03 in 0.72 in (1963)
Month to date precipitation 0.40  
Year to date precipitation 1.13  
Snow  
Snow 0.00 in - - ()
Month to date snowfall  
Since 1 July snowfall  
Snow Depth -    
Sea Level Pressure  
Sea Level Pressure 30.18 in    
Wind  
Wind Speed 9 mph (NE)    
Max Wind Speed 16 mph    
Max Gust Speed -    
Visibility 6 miles    
Events Snow    
T = Trace of Precipitation, MM = Missing Value Source: NWS Daily Summary

Daily Weather History Graph

Daily Weather History Graph

Search for Another Location

Airport or City:

Trip Planner

Search our weather history database for the weather conditions in past years. The results will help you decide how hot, cold, wet, or windy it might be!

Date:

Astronomy

Mar. 16, 2013 Rise Set
Actual Time 7:51 AM CDT 7:49 PM CDT
Civil Twilight 7:22 AM CDT 8:18 PM CDT
Nautical Twilight 6:47 AM CDT 8:53 PM CDT
Astronomical Twilight 6:12 AM CDT 9:28 PM CDT
Moon 10:07 AM CDT (3/16) 12:18 AM CDT (3/16)
Length of Visible Light 12h 56m
Length of Day
11h 57m
Waxing Crescent, 23% of the Moon is Illuminated
Mar 16
Waxing Crescent
Mar 19
First Quarter
Mar 27
Full
Apr 2
Last Quarter
Apr 10
New

Hourly Weather History & Observations

Time (CDT) Temp. Windchill Dew Point Humidity Pressure Visibility Wind Dir Wind Speed Gust Speed Precip Events Conditions
12:52 AM 15.1 °F 1.1 °F 10.0 °F 80% 30.16 in 8.0 mi North 12.7 mph - 0.00 in   Overcast
1:32 AM 15.8 °F 3.4 °F 8.6 °F 73% 30.08 in 5.0 mi North 10.4 mph - N/A   Haze
1:52 AM 14.0 °F -0.2 °F 8.1 °F 77% 30.18 in 9.0 mi North 12.7 mph - N/A   Overcast
2:52 AM 12.0 °F 0.5 °F 6.1 °F 77% 30.21 in 10.0 mi North 8.1 mph - N/A   Overcast
3:30 AM 10.4 °F -3.3 °F 5.0 °F 79% 30.13 in 10.0 mi NNW 10.4 mph - N/A   Scattered Clouds
3:52 AM 10.0 °F -4.5 °F 5.0 °F 80% 30.23 in 10.0 mi NNW 11.5 mph - N/A   Clear
4:52 AM 8.1 °F -3.2 °F 3.9 °F 83% 30.25 in 10.0 mi NNW 6.9 mph - N/A   Clear
5:52 AM 8.1 °F -4.3 °F 3.0 °F 80% 30.25 in 10.0 mi NNW 8.1 mph - N/A   Clear
6:52 AM 7.0 °F -7.5 °F 1.9 °F 80% 30.25 in 10.0 mi North 10.4 mph - N/A   Clear
7:52 AM 6.1 °F -0.9 °F 1.9 °F 83% 30.26 in 10.0 mi North 3.5 mph - N/A   Clear
8:52 AM 8.1 °F -3.2 °F 1.9 °F 76% 30.27 in 10.0 mi NNE 6.9 mph - N/A   Clear
9:52 AM 10.0 °F 3.6 °F 3.0 °F 73% 30.24 in 10.0 mi NNE 3.5 mph - N/A   Overcast
10:52 AM 10.9 °F - 6.1 °F 81% 30.25 in 10.0 mi Calm Calm - N/A   Overcast
11:52 AM 16.0 °F 10.4 °F 7.0 °F 68% 30.25 in 10.0 mi WSW 3.5 mph - N/A   Partly Cloudy
12:52 PM 19.0 °F 13.9 °F 8.1 °F 62% 30.23 in 10.0 mi Variable 3.5 mph - N/A   Partly Cloudy
1:52 PM 21.0 °F 16.2 °F 7.0 °F 55% 30.22 in 10.0 mi NNW 3.5 mph - N/A   Clear
2:52 PM 21.9 °F - 8.1 °F 55% 30.20 in 10.0 mi Calm Calm - N/A   Clear
3:52 PM 26.1 °F 21.9 °F 10.0 °F 51% 30.16 in 10.0 mi NW 3.5 mph - N/A   Mostly Cloudy
4:52 PM 27.0 °F 20.5 °F 10.9 °F 51% 30.17 in 10.0 mi NE 5.8 mph - N/A   Mostly Cloudy
5:52 PM 25.0 °F 17.1 °F 10.0 °F 53% 30.18 in 10.0 mi NE 6.9 mph - N/A   Overcast
6:52 PM 26.1 °F 18.4 °F 10.0 °F 51% 30.19 in 10.0 mi NNE 6.9 mph - N/A   Overcast
7:39 PM 21.2 °F 7.8 °F 12.2 °F 68% 30.10 in 1.8 mi ENE 15.0 mph - 0.00 in Snow Light Snow
7:52 PM 21.0 °F 8.1 °F 14.0 °F 74% 30.21 in 1.2 mi ENE 13.8 mph - 0.00 in Snow Light Snow
8:14 PM 19.4 °F 6.6 °F 15.8 °F 86% 30.11 in 2.0 mi East 12.7 mph - 0.00 in Snow Light Snow
8:28 PM 19.4 °F 6.6 °F 14.0 °F 80% 30.11 in 1.5 mi East 12.7 mph - 0.01 in Snow Light Snow
8:52 PM 19.0 °F 6.1 °F 14.0 °F 81% 30.22 in 1.0 mi East 12.7 mph - 0.02 in Snow Light Snow
9:14 PM 17.6 °F 2.7 °F 14.0 °F 86% 30.11 in 1.2 mi East 16.1 mph - 0.01 in Snow Light Snow
9:33 PM 17.6 °F 5.0 °F 12.2 °F 79% 30.12 in 2.0 mi East 11.5 mph - 0.01 in Snow Light Snow
9:49 PM 17.6 °F 3.2 °F 12.2 °F 79% 30.11 in 3.0 mi East 15.0 mph - 0.01 in Snow Light Snow
9:52 PM 18.0 °F 4.2 °F 14.0 °F 84% 30.22 in 3.0 mi East 13.8 mph - 0.01 in Snow Light Snow
10:29 PM 17.6 °F 5.0 °F 12.2 °F 79% 30.12 in 2.5 mi East 11.5 mph - 0.00 in Snow Light Snow
10:37 PM 17.6 °F 5.0 °F 12.2 °F 79% 30.12 in 1.2 mi ESE 11.5 mph - 0.01 in Snow Light Snow
10:52 PM 17.1 °F 5.0 °F 12.9 °F 84% 30.22 in 1.8 mi ESE 10.4 mph - 0.01 in Snow Light Snow
11:15 PM 15.8 °F 2.1 °F 12.2 °F 86% 30.11 in 2.0 mi ESE 12.7 mph - 0.00 in Snow Light Snow
11:52 PM 15.1 °F -0.1 °F 10.9 °F 84% 30.19 in 3.0 mi ESE 15.0 mph - 0.01 in Snow Light Snow